[[{"header":{"parameterUnit":"m.s-1","parameterCategory":1,"la1":30.2991,"la2":30.254,"lo1":-89.0895,"lo2":-89.0444,"dy":0.0017,"dx":0.0017,"nx":28,"ny":28,"refTime":"2024-10-10T21:00:00:Z","depth":0,"parameterNumber":2,"parameterNumberName":"U-component_of_WINDS"},"data":[0,0,0,0,0,0,0,0,0,0,0,0,0,0,0,0,0,0,0,0,0,0,0,0,0,0,0,0,0,0,0,0,0,0,0,0,0,0,0,0,0,0,0,0,0,0,0,0,0,0,0,0,0,0,0,0,0,0,-0.8047,-0.8046,0,-0.7982,-0.7981,-0.798,-0.7909,-0.7908,-0.7907,-0.7906,-0.784,-0.7839,-0.7838,0,0,0,0,0,0,0,0,0,0,0,0,0,-0.811,-0.8109,-0.8047,-0.8046,-0.8045,-0.7982,-0.7981,-0.798,-0.7909,-0.7908,-0.7907,-0.7906,-0.784,-0.7839,-0.7838,0,0,0,0,0,0,0,0,0,0,0,0,0,-0.8068,-0.8109,-0.8047,-0.8002,-0.7997,-0.7982,-0.7981,-0.798,-0.791,-0.7908,-0.7907,-0.7905,-0.7841,-0.7839,-0.7838,-0.7862,0,0,-0.7835,-0.7834,0,0,0,0,0,0,0,0,-0.807,-0.8065,-0.8009,-0.8005,-0.8,-0.7952,-0.7979,-0.794,-0.791,-0.7943,-0.7906,-0.7904,-0.7879,-0.7874,-0.7865,-0.7859,-0.7856,-0.7834,-0.7834,-0.7833,-0.7833,0,0,0,0,0,0,0,-0.8073,-0.8068,-0.8021,-0.8009,-0.8003,-0.7986,-0.7978,-0.7971,-0.792,-0.794,-0.7935,-0.7928,-0.7876,-0.7867,-0.7863,-0.7855,-0.7834,-0.7833,-0.7833,-0.7832,-0.7866,-0.7868,0,0,0,0,0,0,-0.8083,-0.8071,-0.8023,-0.8019,-0.8032,-0.7986,-0.7977,-0.7969,-0.792,-0.7911,-0.7929,-0.7925,-0.7869,-0.7865,-0.7861,-0.7886,-0.7833,-0.7832,-0.7831,-0.7865,-0.7867,-0.7868,0,0,0,0,0,0,-0.8084,-0.8079,-0.8026,-0.8043,-0.8035,-0.7986,-0.7978,-0.7968,-0.7959,-0.7912,-0.7903,-0.793,-0.7868,-0.7862,-0.7862,-0.7883,-0.7832,-0.783,-0.7863,-0.7865,-0.7867,-0.7937,0,0,0,0,0,0,-0.8086,-0.808,-0.8088,-0.8044,-0.8035,-0.8028,-0.7979,-0.7968,-0.7958,-0.7951,-0.791,-0.7901,-0.7866,-0.7865,-0.7861,-0.788,-0.7829,-0.7861,-0.7864,-0.7867,-0.7933,-0.7942,-0.7949,0,0,0,0,0,-0.8089,-0.811,-0.8089,-0.8084,-0.8044,-0.803,-0.8024,-0.7983,-0.7959,-0.7968,-0.7937,-0.7903,-0.7881,-0.7865,-0.7861,-0.788,-0.7859,-0.7863,-0.7866,-0.7929,-0.794,-0.7949,0,0,0,0,0,0,-0.8157,-0.8103,-0.8079,-0.8087,-0.8063,-0.8018,-0.8026,-0.7996,-0.7979,-0.7973,-0.7924,-0.7915,-0.7921,-0.79,-0.7883,-0.7901,-0.7865,-0.7868,-0.7915,-0.7924,-0.7933,-0.7938,-0.7828,0,0,0,0,0,-0.8173,-0.8166,-0.8119,-0.813,-0.812,-0.8076,-0.8068,-0.8039,-0.8012,-0.8002,-0.7972,-0.7948,-0.7936,-0.7929,-0.7915,-0.793,-0.792,-0.7941,-0.7949,-0.7956,-0.7959,-0.7967,-0.7976,-0.788,-0.788,-0.788,0,0,-0.8206,-0.8176,-0.8174,-0.8143,-0.8122,-0.8116,-0.8068,-0.8063,-0.8059,-0.8001,-0.8,-0.7977,-0.7947,-0.7955,-0.7957,-0.7938,-0.7984,-0.7961,-0.7967,-0.7966,-0.7972,-0.7981,-0.7989,-0.7883,-0.7882,-0.7882,0,0,-0.8263,-0.8239,-0.8246,-0.8226,-0.8194,-0.8165,-0.8167,-0.8126,-0.8109,-0.8107,-0.8064,-0.8058,-0.8038,-0.8019,-0.8007,-0.8059,-0.8027,-0.8056,-0.8099,-0.8108,-0.8115,-0.8122,-0.8142,-0.8149,-0.8059,-0.806,-0.806,0,-0.8308,-0.8297,-0.8254,-0.8253,-0.8241,-0.819,-0.8197,-0.818,-0.8145,-0.8139,-0.8118,-0.8093,-0.8069,-0.8072,-0.8085,-0.8077,-0.8078,-0.8061,-0.8118,-0.8124,-0.8129,-0.8147,-0.8155,-0.8063,-0.8063,-0.8063,-0.8062,0,-0.8355,-0.8348,-0.8358,-0.8327,-0.8316,-0.832,-0.8277,-0.8272,-0.8244,-0.8217,-0.8217,-0.8187,-0.8167,-0.8165,-0.8138,-0.8166,-0.8155,-0.8127,-0.809,-0.8143,-0.8159,-0.8166,-0.8069,-0.8067,-0.8066,-0.8065,0,0,-0.8452,-0.8398,-0.8402,-0.8388,-0.835,-0.8345,-0.8347,-0.8327,-0.8324,-0.8303,-0.8304,-0.8289,-0.8263,-0.8249,-0.8219,-0.8226,-0.8272,-0.8197,-0.8196,-0.8213,-0.8303,-0.8325,-0.8334,-0.825,-0.8251,-0.8252,-0.8306,0,-0.8503,-0.8503,-0.8464,-0.8475,-0.8469,-0.8421,-0.8423,-0.84,-0.8376,-0.8368,-0.834,-0.8331,-0.8297,-0.8289,-0.8294,-0.8265,-0.8289,-0.8261,-0.8252,-0.8252,-0.8261,-0.8342,-0.8365,-0.8417,-0.8312,-0.8313,-0.8313,0,-0.8562,-0.8545,-0.8555,-0.8519,-0.8515,-0.8517,-0.8497,-0.849,-0.8464,-0.8446,-0.8432,-0.8398,-0.8398,-0.8364,-0.8364,-0.8345,-0.8339,-0.8325,-0.8326,-0.8324,-0.8286,-0.8343,-0.8432,-0.844,-0.8323,-0.8322,-0.8321,0,-0.8634,-0.8613,-0.8617,-0.8606,-0.8563,-0.8566,-0.8549,-0.8521,-0.8513,-0.8496,-0.849,-0.8473,-0.8464,-0.8452,-0.8416,-0.8394,-0.8421,-0.8382,-0.8407,-0.8408,-0.8414,-0.8415,-0.8505,-0.841,-0.841,-0.841,-0.8409,0,-0.8695,-0.8704,-0.8649,-0.8651,-0.866,-0.8616,-0.8626,-0.8604,-0.858,-0.8578,-0.8535,-0.8534,-0.8486,-0.848,-0.8451,-0.8457,-0.8452,-0.8438,-0.8431,-0.8443,-0.8445,-0.8438,-0.8434,-0.8411,-0.8411,-0.8411,-0.841,0,-0.8776,-0.874,-0.8741,-0.8701,-0.8691,-0.87,-0.8665,-0.8667,-0.864,-0.8638,-0.8635,-0.8593,-0.8584,-0.8547,-0.8528,-0.8509,-0.8525,-0.8509,-0.8534,-0.8529,-0.8555,-0.8554,-0.8645,-0.8655,-0.8553,-0.8554,-0.8555,0,-0.8818,-0.8824,-0.8785,-0.878,-0.8765,-0.8758,-0.875,-0.8708,-0.8701,-0.8673,-0.8678,-0.8665,-0.8653,-0.8641,-0.861,-0.8596,-0.858,-0.8613,-0.8578,-0.8591,-0.8582,-0.8583,-0.8584,-0.8621,-0.8622,-0.8623,-0.8624,0,-0.8897,-0.8879,-0.8868,-0.8852,-0.8843,-0.8828,-0.8811,-0.881,-0.8763,-0.8758,-0.8748,-0.8739,-0.8721,-0.871,-0.8692,-0.8674,-0.8642,-0.8636,-0.8641,-0.8653,-0.8668,-0.8662,-0.8555,-0.8634,-0.8633,-0.8632,-0.8632,-0.8631,-0.896,-0.8963,-0.8937,-0.8927,-0.891,-0.8895,-0.8895,-0.8869,-0.886,-0.8842,-0.8818,-0.8812,-0.8788,-0.876,-0.8745,-0.874,-0.8722,-0.8729,-0.8731,-0.8734,-0.874,-0.8668,-0.8737,-0.8736,-0.8736,-0.8736,-0.8735,0,-0.9037,-0.9018,-0.901,-0.8987,-0.898,-0.8951,-0.8931,-0.8927,-0.8922,-0.8902,-0.8891,-0.8882,-0.8871,-0.884,-0.8826,-0.8829,-0.8814,-0.8827,-0.8826,-0.8823,-0.8756,-0.8754,-0.8839,-0.8839,-0.8839,-0.8839,-0.8839,-0.8839,-0.9077,-0.9081,-0.9061,-0.9057,-0.9038,-0.9032,-0.9023,-0.901,-0.8994,-0.8985,-0.8976,-0.8956,-0.8932,-0.8916,-0.8906,-0.8897,-0.8895,-0.8913,-0.8899,-0.8837,-0.8828,-0.8818,-0.8816,-0.8912,-0.8912,-0.8966,-0.8967,-0.8967]},{"header":{"parameterUnit":"m.s-1","parameterCategory":1,"la1":30.2991,"la2":30.254,"lo1":-89.0895,"lo2":-89.0444,"dy":0.0017,"dx":0.0017,"nx":28,"ny":28,"refTime":"2024-10-10T21:00:00:Z","depth":0,"parameterNumber":3,"parameterNumberName":"V-component_of_WINDS"},"data":[0,0,0,0,0,0,0,0,0,0,0,0,0,0,0,0,0,0,0,0,0,0,0,0,0,0,0,0,0,0,0,0,0,0,0,0,0,0,0,0,0,0,0,0,0,0,0,0,0,0,0,0,0,0,0,0,0,0,1.3297,1.3297,0,1.3258,1.3258,1.3257,1.3237,1.3236,1.3236,1.3236,1.3195,1.3194,1.3193,0,0,0,0,0,0,0,0,0,0,0,0,0,1.3352,1.3351,1.3297,1.3297,1.3296,1.3258,1.3258,1.3257,1.3237,1.3236,1.3236,1.3236,1.3195,1.3194,1.3193,0,0,0,0,0,0,0,0,0,0,0,0,0,1.3322,1.3351,1.3297,1.3281,1.328,1.3258,1.3258,1.3257,1.3237,1.3236,1.3236,1.3236,1.3196,1.3194,1.3193,1.3184,0,0,1.3188,1.3187,0,0,0,0,0,0,0,0,1.3324,1.332,1.3284,1.3283,1.328,1.3252,1.3262,1.3232,1.3237,1.3253,1.3236,1.3236,1.3214,1.3211,1.3204,1.3182,1.318,1.3188,1.3187,1.3186,1.3186,0,0,0,0,0,0,0,1.3326,1.3321,1.3282,1.3284,1.3281,1.3275,1.3271,1.3256,1.3234,1.3251,1.325,1.3246,1.3213,1.3205,1.3203,1.3179,1.3188,1.3186,1.3185,1.3185,1.3146,1.3146,0,0,0,0,0,0,1.3331,1.3323,1.3283,1.3281,1.3302,1.3275,1.327,1.3261,1.3234,1.323,1.3246,1.3245,1.3208,1.3204,1.3201,1.3187,1.3186,1.3185,1.3184,1.3146,1.3146,1.3146,0,0,0,0,0,0,1.3332,1.3327,1.3285,1.3301,1.3296,1.3274,1.3264,1.3261,1.3253,1.323,1.3226,1.3242,1.3208,1.3203,1.3188,1.3185,1.3184,1.3182,1.3146,1.3146,1.3146,1.316,0,0,0,0,0,0,1.3334,1.3328,1.3325,1.3302,1.3295,1.3273,1.3264,1.326,1.325,1.3249,1.3225,1.3221,1.3207,1.319,1.3186,1.3183,1.3181,1.3146,1.3146,1.3146,1.316,1.3161,1.3162,0,0,0,0,0,1.3336,1.3331,1.3325,1.332,1.3291,1.3273,1.3269,1.3253,1.325,1.3246,1.3231,1.3222,1.3186,1.3189,1.3184,1.3181,1.3146,1.3146,1.3146,1.316,1.3161,1.3161,0,0,0,0,0,0,1.3355,1.3328,1.3321,1.3308,1.3293,1.3269,1.3264,1.3255,1.324,1.3239,1.322,1.3215,1.3201,1.3189,1.3192,1.3169,1.3165,1.3164,1.3177,1.3178,1.3179,1.3182,1.318,0,0,0,0,0,1.3357,1.3346,1.3322,1.3314,1.3306,1.3287,1.3278,1.3267,1.3251,1.3244,1.3228,1.3211,1.3196,1.3187,1.3171,1.3158,1.3152,1.3153,1.3154,1.3155,1.3154,1.3144,1.3144,1.3145,1.3145,1.3145,0,0,1.3363,1.3347,1.3341,1.3317,1.3304,1.3291,1.3281,1.3269,1.3259,1.3242,1.3226,1.3213,1.3193,1.3179,1.3171,1.3168,1.3152,1.3155,1.3155,1.3154,1.3144,1.3144,1.3143,1.3145,1.3145,1.3145,0,0,1.3367,1.3354,1.3344,1.3331,1.3311,1.3298,1.3295,1.3272,1.3263,1.3247,1.3234,1.3221,1.3196,1.3182,1.3171,1.3167,1.3157,1.3163,1.3166,1.3157,1.3157,1.3157,1.3154,1.3153,1.3162,1.3162,1.3162,0,1.3376,1.3357,1.3341,1.3328,1.3317,1.3301,1.3291,1.3278,1.3255,1.3247,1.3244,1.3211,1.3197,1.3177,1.3176,1.3169,1.3164,1.3165,1.3158,1.3158,1.3157,1.3154,1.3153,1.3163,1.3163,1.3162,1.3162,0,1.3369,1.3355,1.335,1.3327,1.3316,1.3304,1.3285,1.3275,1.3265,1.3252,1.3234,1.3216,1.3196,1.3191,1.3181,1.3169,1.3168,1.3162,1.3157,1.3158,1.3155,1.3154,1.3164,1.3163,1.3163,1.3163,0,0,1.3384,1.3351,1.3349,1.3337,1.3313,1.3302,1.3289,1.327,1.3261,1.3245,1.3232,1.3211,1.3204,1.3192,1.318,1.3172,1.3168,1.3167,1.3166,1.3167,1.3152,1.3156,1.3155,1.3161,1.3161,1.3161,1.3153,0,1.3383,1.336,1.3344,1.3326,1.3313,1.3296,1.3285,1.3268,1.3255,1.324,1.3225,1.321,1.3204,1.3196,1.3187,1.3171,1.3165,1.3171,1.3148,1.3148,1.3153,1.3154,1.3158,1.3152,1.3152,1.3152,1.3152,0,1.3379,1.3363,1.3344,1.3319,1.3313,1.3303,1.3283,1.327,1.325,1.3241,1.3227,1.3214,1.3198,1.3195,1.3172,1.3176,1.3166,1.3156,1.3156,1.3152,1.3149,1.3149,1.3149,1.3148,1.315,1.315,1.315,0,1.339,1.3364,1.3348,1.3339,1.3311,1.3304,1.3291,1.3271,1.326,1.3242,1.3234,1.3215,1.3204,1.3188,1.317,1.317,1.3148,1.3144,1.3139,1.3139,1.3135,1.3135,1.3132,1.313,1.313,1.313,1.313,0,1.3391,1.3379,1.3353,1.3343,1.333,1.3311,1.3297,1.3283,1.3265,1.3252,1.3237,1.3224,1.3202,1.3186,1.3172,1.3153,1.3149,1.314,1.3136,1.3141,1.3142,1.3133,1.3133,1.313,1.313,1.313,1.313,0,1.3401,1.3383,1.3365,1.3339,1.3332,1.3323,1.33,1.329,1.3275,1.3258,1.3253,1.323,1.321,1.3191,1.3165,1.3155,1.3136,1.3132,1.3143,1.3141,1.3136,1.3137,1.3127,1.3125,1.3125,1.3125,1.3125,0,1.3402,1.3393,1.3366,1.3356,1.3344,1.3328,1.3316,1.3297,1.3285,1.326,1.3252,1.3231,1.3214,1.3183,1.3163,1.3143,1.3137,1.3135,1.3133,1.3138,1.3135,1.3135,1.3134,1.3135,1.3135,1.3135,1.3135,0,1.3405,1.3396,1.338,1.336,1.3346,1.333,1.3313,1.3305,1.3282,1.3269,1.3249,1.3235,1.3208,1.3187,1.3164,1.315,1.3138,1.3136,1.3133,1.3138,1.3144,1.3139,1.3144,1.3136,1.3136,1.3136,1.3136,1.3136,1.341,1.34,1.3379,1.3361,1.3346,1.333,1.3318,1.3302,1.3285,1.3261,1.325,1.323,1.3208,1.3175,1.3161,1.3144,1.3141,1.3138,1.3137,1.3136,1.3136,1.3148,1.314,1.314,1.314,1.314,1.314,0,1.3411,1.3397,1.338,1.3356,1.3342,1.3332,1.3312,1.33,1.3282,1.3263,1.3246,1.3222,1.3201,1.3179,1.3156,1.3147,1.314,1.3141,1.3141,1.3138,1.3141,1.3145,1.3146,1.3146,1.3146,1.3146,1.3146,1.3146,1.341,1.3393,1.3381,1.3356,1.3341,1.3321,1.331,1.3294,1.3278,1.3252,1.3235,1.3221,1.32,1.3175,1.3155,1.3149,1.3141,1.3143,1.3135,1.3138,1.3138,1.3137,1.3141,1.3141,1.3141,1.3133,1.3133,1.3133]}]]